{"data":{"norad_id":84407,"epoch":"2026-09-07T06:09:41.044320Z","epoch_age_seconds":1162457,"freshness":"AGED","line1":"1 84407U          26250.25672505  .00000181  00000+0 -74514-2 0  9993","line2":"2 84407  18.7652 242.3832 7241930 208.6734  77.1037  2.05844624 81407","mean_motion":2.05844624,"eccentricity":0.724193,"inclination_deg":18.7652,"raan_deg":242.3832,"arg_perigee_deg":208.6734,"mean_anomaly_deg":77.1037,"bstar":-0.0074514,"rev_number":8140,"period_min":699.55676860427,"perigee_km":821.55812395251,"apogee_km":38630.379588966,"semimajor_km":26104.105856459,"source":"CELESTRAK","updated_at":"2026-09-20T09:00:32.443487Z"}}